| time (UTC) | temp C | wind direction | speed KPH | gust KPH | rain 1hr cm | rain 24hr cm | rain mn cm | humidity % | barometer mb |
| 20260508141603 | 13 | 226 | 6.4 | 14.5 | 0.00 | 0.00 | 0.00 | 61 | 1016.6 |
| 20260508140121 | 12 | 290 | 4.8 | 12.9 | 0.00 | 0.00 | 0.00 | 62 | 1016.6 |
| 20260508134525 | 12 | 245 | 6.4 | 12.9 | 0.00 | 0.00 | 0.00 | 62 | 1016.6 |
| 20260508133112 | 12 | 236 | 6.4 | 16.1 | 0.00 | 0.00 | 0.00 | 63 | 1016.6 |
| 20260508131557 | 12 | 262 | 6.4 | 16.1 | 0.00 | 0.00 | 0.00 | 63 | 1016.6 |
| 20260508130119 | 12 | 246 | 4.8 | 16.1 | 0.00 | 0.00 | 0.00 | 66 | 1016.4 |
| 20260508124501 | 12 | 272 | 6.4 | 20.9 | 0.00 | 0.00 | 0.00 | 66 | 1016.4 |
| 20260508123013 | 12 | 165 | 6.4 | 14.5 | 0.00 | 0.00 | 0.00 | 66 | 1016.2 |
| 20260508121558 | 13 | 236 | 6.4 | 20.9 | 0.00 | 0.00 | 0.00 | 66 | 1016.2 |
| 20260508120116 | 12 | 252 | 4.8 | 12.9 | 0.00 | 0.00 | 0.00 | 68 | 1016.1 |
| 20260508114504 | 12 | 242 | 6.4 | 12.9 | 0.00 | 0.00 | 0.00 | 70 | 1016.0 |
| 20260508113130 | 12 | 255 | 4.8 | 16.1 | 0.00 | 0.00 | 0.00 | 70 | 1015.9 |
| 20260508111535 | 12 | 267 | 8.0 | 17.7 | 0.00 | 0.00 | 0.00 | 70 | 1015.9 |
| 20260508110101 | 13 | 339 | 4.8 | 16.1 | 0.00 | 0.00 | 0.00 | 69 | 1015.7 |
| 20260508104554 | 11 | 324 | 4.8 | 17.7 | 0.00 | 0.00 | 0.00 | 70 | 1015.8 |
| 20260508103115 | 12 | 223 | 4.8 | 17.7 | 0.00 | 0.00 | 0.00 | 68 | 1015.5 |
| 20260508101609 | 12 | 340 | 8.0 | 17.7 | 0.00 | 0.00 | 0.00 | 67 | 1015.5 |
| 20260508100120 | 12 | 212 | 6.4 | 17.7 | 0.00 | 0.00 | 0.00 | 71 | 1015.5 |
| 20260508094506 | 11 | 267 | 6.4 | 14.5 | 0.00 | 0.00 | 0.00 | 74 | 1015.3 |
| 20260508093126 | 10 | 246 | 6.4 | 14.5 | 0.00 | 0.00 | 0.00 | 76 | 1015.3 |
| 20260508091536 | 10 | 273 | 4.8 | 16.1 | 0.00 | 0.00 | 0.00 | 77 | 1015.3 |
| 20260508090012 | 10 | 325 | 6.4 | 16.1 | 0.00 | 0.00 | 0.00 | 79 | 1015.2 |
| 20260508084541 | 10 | 267 | 8.0 | 19.3 | 0.00 | 0.00 | 0.00 | 78 | 1015.1 |
| 20260508083106 | 10 | 270 | 6.4 | 16.1 | 0.00 | 0.00 | 0.00 | 79 | 1015.0 |
| 20260508081558 | 10 | 278 | 8.0 | 22.5 | 0.00 | 0.00 | 0.00 | 80 | 1014.8 |
| 20260508080112 | 10 | 256 | 6.4 | 16.1 | 0.00 | 0.00 | 0.00 | 81 | 1014.7 |
| 20260508074548 | 10 | 242 | 3.2 | 14.5 | 0.00 | 0.00 | 0.00 | 82 | 1014.6 |
| 20260508073104 | 10 | 261 | 3.2 | 12.9 | 0.00 | 0.00 | 0.00 | 82 | 1014.4 |
| 20260508071555 | 10 | 188 | 8.0 | 19.3 | 0.00 | 0.00 | 0.00 | 82 | 1014.2 |
| 20260508070114 | 10 | 250 | 8.0 | 19.3 | 0.00 | 0.00 | 0.00 | 83 | 1014.1 |
| 20260508064608 | 9 | 244 | 6.4 | 14.5 | 0.00 | 0.00 | 0.00 | 85 | 1014.0 |
| 20260508063140 | 9 | 216 | 8.0 | 16.1 | 0.00 | 0.00 | 0.00 | 85 | 1013.9 |
| 20260508061507 | 8 | 215 | 6.4 | 19.3 | 0.00 | 0.00 | 0.00 | 85 | 1013.8 |
| 20260508060008 | 8 | 155 | 6.4 | 16.1 | 0.00 | 0.00 | 0.00 | 85 | 1013.6 |
| 20260508054532 | 8 | 132 | 6.4 | 17.7 | 0.00 | 0.00 | 0.00 | 85 | 1013.4 |
| 20260508053008 | 8 | 213 | 6.4 | 16.1 | 0.00 | 0.00 | 0.00 | 85 | 1013.2 |
| 20260508051605 | 8 | 185 | 9.7 | 16.1 | 0.00 | 0.00 | 0.00 | 85 | 1013.0 |
| 20260508050100 | 8 | 159 | 8.0 | 16.1 | 0.00 | 0.00 | 0.00 | 85 | 1013.0 |
| 20260508044544 | 8 | 217 | 8.0 | 17.7 | 0.00 | 0.00 | 0.00 | 85 | 1012.8 |
| 20260508043110 | 8 | 199 | 8.0 | 19.3 | 0.00 | 0.00 | 0.00 | 85 | 1012.7 |
| 20260508041602 | 8 | 169 | 12.9 | 25.7 | 0.00 | 0.00 | 0.00 | 84 | 1012.5 |
| 20260508040130 | 8 | 234 | 8.0 | 19.3 | 0.00 | 0.00 | 0.00 | 84 | 1012.4 |
| 20260508034535 | 8 | 191 | 8.0 | 22.5 | 0.00 | 0.00 | 0.00 | 83 | 1012.4 |
| 20260508033110 | 8 | 211 | 11.3 | 24.1 | 0.00 | 0.00 | 0.00 | 83 | 1012.2 |
| 20260508031503 | 8 | 193 | 9.7 | 20.9 | 0.00 | 0.00 | 0.00 | 82 | 1012.3 |
| 20260508030016 | 8 | 157 | 9.7 | 32.2 | 0.00 | 0.00 | 0.00 | 82 | 1012.3 |
| 20260508024545 | 8 | 165 | 14.5 | 29.0 | 0.00 | 0.00 | 0.00 | 81 | 1012.2 |
| 20260508023107 | 8 | 143 | 14.5 | 24.1 | 0.00 | 0.00 | 0.00 | 79 | 1012.2 |
| 20260508021603 | 8 | 199 | 11.3 | 19.3 | 0.00 | 0.00 | 0.00 | 78 | 1012.3 |
| 20260508020126 | 8 | 158 | 11.3 | 24.1 | 0.00 | 0.00 | 0.00 | 77 | 1012.3 |
| 20260508014530 | 8 | 220 | 12.9 | 30.6 | 0.00 | 0.00 | 0.00 | 76 | 1012.3 |
| 20260508013057 | 8 | 221 | 14.5 | 30.6 | 0.00 | 0.00 | 0.00 | 76 | 1012.3 |
| 20260508011551 | 8 | 202 | 12.9 | 27.4 | 0.00 | 0.00 | 0.00 | 75 | 1012.3 |
| 20260508010132 | 8 | 207 | 12.9 | 38.6 | 0.00 | 0.00 | 0.00 | 75 | 1011.9 |
| 20260508004509 | 8 | 185 | 14.5 | 29.0 | 0.00 | 0.00 | 0.00 | 76 | 1012.0 |
| 20260508003009 | 8 | 222 | 16.1 | 27.4 | 0.00 | 0.00 | 0.00 | 76 | 1012.0 |
| 20260508001544 | 8 | 253 | 12.9 | 37.0 | 0.00 | 0.00 | 0.00 | 76 | 1012.0 |
| 20260507234552 | 8 | 220 | 14.5 | 33.8 | 0.00 | 0.00 | 0.00 | 76 | 1012.1 |
| 20260507233119 | 9 | 171 | 14.5 | 37.0 | 0.00 | 0.00 | 0.00 | 76 | 1012.0 |
| 20260507231518 | 9 | 177 | 14.5 | 27.4 | 0.00 | 0.00 | 0.00 | 76 | 1012.0 |
| 20260507230020 | 9 | 258 | 12.9 | 48.3 | 0.00 | 0.00 | 0.00 | 76 | 1011.9 |
| 20260507224537 | 9 | 189 | 11.3 | 29.0 | 0.00 | 0.00 | 0.00 | 75 | 1011.9 |
| 20260507223211 | 9 | 153 | 19.3 | 29.0 | 0.00 | 0.00 | 0.00 | 75 | 1011.8 |
| 20260507221601 | 9 | 202 | 14.5 | 38.6 | 0.00 | 0.00 | 0.00 | 75 | 1011.8 |
| 20260507220001 | 9 | 213 | 16.1 | 40.2 | 0.00 | 0.00 | 0.00 | 76 | 1011.8 |
| 20260507214542 | 9 | 205 | 14.5 | 33.8 | 0.00 | 0.00 | 0.00 | 76 | 1011.8 |
| 20260507213151 | 9 | 217 | 14.5 | 41.8 | 0.00 | 0.00 | 0.00 | 77 | 1011.8 |
| 20260507211601 | 9 | 186 | 12.9 | 32.2 | 0.00 | 0.00 | 0.00 | 77 | 1011.8 |
| 20260507210124 | 9 | 234 | 14.5 | 37.0 | 0.00 | 0.00 | 0.00 | 76 | 1011.8 |
| 20260507204520 | 10 | 168 | 12.9 | 30.6 | 0.00 | 0.00 | 0.00 | 76 | 1011.9 |
| 20260507203059 | 10 | 178 | 16.1 | 30.6 | 0.00 | 0.00 | 0.00 | 76 | 1012.1 |
| 20260507201604 | 10 | 178 | 12.9 | 30.6 | 0.00 | 0.00 | 0.00 | 75 | 1012.0 |
| 20260507200120 | 10 | 234 | 14.5 | 35.4 | 0.00 | 0.00 | 0.00 | 75 | 1011.9 |
| 20260507194528 | 10 | 209 | 9.7 | 24.1 | 0.00 | 0.00 | 0.00 | 74 | 1011.8 |
| 20260507193027 | 10 | 178 | 11.3 | 24.1 | 0.00 | 0.00 | 0.00 | 73 | 1011.7 |
| 20260507191544 | 10 | 217 | 6.4 | 19.3 | 0.00 | 0.00 | 0.00 | 73 | 1011.7 |
| 20260507190116 | 11 | 162 | 8.0 | 22.5 | 0.00 | 0.00 | 0.00 | 72 | 1011.9 |
| 20260507184523 | 11 | 198 | 9.7 | 22.5 | 0.00 | 0.00 | 0.00 | 71 | 1011.8 |
| 20260507183137 | 11 | 179 | 8.0 | 22.5 | 0.00 | 0.00 | 0.00 | 70 | 1011.7 |
| 20260507181544 | 11 | 208 | 9.7 | 20.9 | 0.00 | 0.00 | 0.00 | 68 | 1011.6 |
| 20260507180117 | 11 | 165 | 8.0 | 22.5 | 0.00 | 0.00 | 0.00 | 67 | 1011.6 |
| 20260507174518 | 12 | 195 | 12.9 | 27.4 | 0.00 | 0.00 | 0.00 | 66 | 1011.5 |
| 20260507173058 | 12 | 250 | 9.7 | 29.0 | 0.00 | 0.00 | 0.00 | 65 | 1011.5 |
| 20260507171602 | 12 | 234 | 14.5 | 29.0 | 0.00 | 0.00 | 0.00 | 63 | 1011.3 |
| 20260507170124 | 13 | 185 | 11.3 | 22.5 | 0.00 | 0.00 | 0.00 | 61 | 1011.3 |
| 20260507164536 | 13 | 187 | 11.3 | 27.4 | 0.00 | 0.00 | 0.00 | 62 | 1011.3 |
| 20260507163103 | 14 | 211 | 8.0 | 25.7 | 0.00 | 0.00 | 0.00 | 60 | 1011.5 |
| 20260507161610 | 14 | 202 | 14.5 | 24.1 | 0.00 | 0.00 | 0.00 | 59 | 1011.6 |
| 20260507160124 | 13 | 217 | 12.9 | 33.8 | 0.00 | 0.00 | 0.00 | 61 | 1011.5 |
| 20260507154530 | 15 | 198 | 11.3 | 32.2 | 0.00 | 0.00 | 0.00 | 57 | 1011.6 |
| 20260507153109 | 14 | 180 | 11.3 | 30.6 | 0.00 | 0.00 | 0.00 | 58 | 1011.8 |
| 20260507151532 | 13 | 237 | 6.4 | 27.4 | 0.00 | 0.00 | 0.00 | 63 | 1011.7 |
| 20260507150005 | 12 | 173 | 12.9 | 25.7 | 0.00 | 0.00 | 0.00 | 63 | 1011.8 |
| 20260507144527 | 12 | 179 | 14.5 | 30.6 | 0.00 | 0.00 | 0.00 | 64 | 1011.8 |
| 20260507143053 | 12 | 216 | 11.3 | 32.2 | 0.00 | 0.00 | 0.00 | 68 | 1011.9 |